Terminal Aerodrome Forecast
Issued by NWS Twin Cities, MN

Home | Current Version | Previous Version | Text Only | Print | Product List | Glossary On
Versions: 1 2 3 4 5 6 7 8 9 10 11 12 13 14 15 16 17 18 19 20 21 22 23
000
FTUS43 KMPX 031511 AAC
TAFSTC
TAF AMD
KSTC 031511Z 0315/0412 13010KT P6SM BKN006
     FM031600 11007KT P6SM SCT025
     FM040600 12006KT 4SM BR SCT004=

USA.gov is the U.S. government's official web portal to all federal, state and local government web resources and services.